This is the latest recevied weather packets stored in our database for station/object OE6PLD-13. If no packets are shown the sender has not sent any weather packets the latest 10 day(s).
| Time | Temp. | Humidity | Pressure | Rain* | Wind** | Luminosity | Snow |
|---|---|---|---|---|---|---|---|
| 1777915300 | 23.89° C | 35% | 1010.4 hPa | 0.76 mm | - | 21 W/m² | - |
| 1777915116 | 23.89° C | 35% | 1010.4 hPa | 0.76 mm | - | 22 W/m² | - |
| 1777914933 | 23.89° C | 35% | 1010.7 hPa | 0.76 mm | - | 22 W/m² | - |
| 1777914750 | 23.89° C | 34% | 1010.5 hPa | 0.76 mm | - | 23 W/m² | - |
| 1777914566 | 23.89° C | 34% | 1010.4 hPa | 0.76 mm | - | 25 W/m² | - |
| 1777914383 | 24.44° C | 34% | 1010.4 hPa | 0.76 mm | - | 25 W/m² | - |
| 1777914200 | 24.44° C | 35% | 1010.4 hPa | 0.76 mm | - | 26 W/m² | - |
| 1777914016 | 24.44° C | 35% | 1010.3 hPa | 0.76 mm | - | 26 W/m² | - |
| 1777913833 | 24.44° C | 35% | 1010.4 hPa | 0.76 mm | - | 27 W/m² | - |
| 1777913650 | 24.44° C | 35% | 1010.1 hPa | 0.76 mm | - | 28 W/m² | - |
| 1777913466 | 25° C | 34% | 1010.3 hPa | 0.76 mm | - | 29 W/m² | - |
| 1777913283 | 25° C | 34% | 1010.5 hPa | 0.76 mm | - | 30 W/m² | - |
| 1777913100 | 25° C | 34% | 1010.1 hPa | 0.76 mm | - | 31 W/m² | - |
| 1777912916 | 25.56° C | 34% | 1010.5 hPa | 0.76 mm | - | 34 W/m² | - |
| 1777912733 | 25.56° C | 33% | 1010.3 hPa | 0.76 mm | - | 38 W/m² | - |
| 1777912549 | 25.56° C | 32% | 1010.5 hPa | 0.76 mm | - | 39 W/m² | - |
| 1777912366 | 25.56° C | 32% | 1010.3 hPa | 0.76 mm | - | 41 W/m² | - |
| 1777912183 | 26.11° C | 32% | 1010.3 hPa | 0.76 mm | - | 41 W/m² | - |
| 1777911999 | 26.11° C | 31% | 1010.3 hPa | 0.76 mm | - | 45 W/m² | - |
| 1777911816 | 26.67° C | 31% | 1010.3 hPa | 0.76 mm | - | 48 W/m² | - |
| 1777911632 | 26.67° C | 31% | 1010.3 hPa | 0.76 mm | - | 68 W/m² | - |
| 1777911449 | 27.22° C | 31% | 1010.4 hPa | 0.76 mm | - | 74 W/m² | - |
| 1777911266 | 27.22° C | 31% | 1010.6 hPa | 0.76 mm | - | 82 W/m² | - |
| 1777911082 | 27.22° C | 30% | 1010.6 hPa | 0.76 mm | - | 107 W/m² | - |
| 1777910899 | 27.22° C | 30% | 1010.4 hPa | 0.76 mm | - | 122 W/m² | - |
* Rain latest hour (hover to see other rain measurements)
** Current wind speed in m/s (hover to see current wind gust speed)